Precipitable_Water
0.68 0.67 0.66 0.65 0.64 0.63 0.62 0.62 0.61 0.62 0.64 0.65 0.64 0.61 0.58 0.55 0.51 0.51 0.38 0.49 0.61 0.72 0.66 0.59 0.57 0.53 0.54 0.44 0.48 0.49 0.24 0.18 0.21 0.21 0.24 0.36 0.34 0.42 0.47 0.39 0.41 0.42 0.39 0.40 0.56
0.66 0.67 0.66 0.66 0.66 0.64 0.63 0.63 0.63 0.63 0.62 0.62 0.62 0.62 0.58 0.55 0.44 0.39 0.53 0.64 0.68 0.72 0.57 0.49 0.43 0.48 0.41 0.42 0.45 0.37 0.26 0.23 0.29 0.32 0.31 0.36 0.38 0.40 0.40 0.39 0.38 0.42 0.44 0.39 0.49
0.59 0.59 0.59 0.60 0.62 0.64 0.63 0.62 0.61 0.60 0.60 0.59 0.60 0.60 0.56 0.55 0.32 0.35 0.60 0.64 0.68 0.68 0.62 0.58 0.52 0.46 0.37 0.42 0.42 0.40 0.26 0.32 0.33 0.38 0.40 0.38 0.39 0.46 0.43 0.35 0.40 0.38 0.39 0.37 0.44
0.58 0.56 0.55 0.55 0.56 0.60 0.61 0.59 0.58 0.58 0.60 0.60 0.59 0.61 0.57 0.47 0.19 0.42 0.63 0.65 0.67 0.66 0.59 0.52 0.46 0.37 0.34 0.33 0.42 0.33 0.37 0.38 0.36 0.40 0.41 0.38 0.44 0.40 0.44 0.39 0.44 0.45 0.46 0.39 0.40
0.55 0.54 0.52 0.51 0.52 0.54 0.57 0.56 0.57 0.59 0.60 0.60 0.60 0.60 0.49 0.33 0.29 0.55 0.65 0.66 0.61 0.59 0.52 0.47 0.40 0.39 0.32 0.37 0.39 0.35 0.36 0.39 0.40 0.42 0.44 0.46 0.40 0.41 0.40 0.45 0.47 0.47 0.46 0.38 0.39
0.51 0.50 0.47 0.46 0.47 0.49 0.55 0.57 0.57 0.57 0.59 0.61 0.62 0.61 0.41 0.25 0.45 0.62 0.62 0.59 0.56 0.53 0.52 0.52 0.45 0.48 0.41 0.39 0.38 0.40 0.40 0.38 0.40 0.39 0.43 0.38 0.40 0.46 0.42 0.51 0.50 0.47 0.44 0.42 0.39
0.49 0.47 0.44 0.44 0.44 0.47 0.51 0.55 0.54 0.56 0.59 0.61 0.64 0.53 0.36 0.30 0.53 0.62 0.62 0.58 0.60 0.55 0.48 0.58 0.60 0.49 0.47 0.39 0.48 0.44 0.34 0.35 0.35 0.39 0.36 0.42 0.30 0.34 0.43 0.49 0.48 0.48 0.45 0.43 0.41
0.48 0.46 0.43 0.42 0.42 0.43 0.48 0.52 0.52 0.54 0.59 0.60 0.64 0.50 0.27 0.47 0.59 0.57 0.62 0.59 0.63 0.63 0.60 0.65 0.67 0.56 0.50 0.51 0.44 0.36 0.36 0.25 0.33 0.36 0.41 0.41 0.21 0.34 0.41 0.41 0.41 0.47 0.46 0.44 0.42
0.46 0.44 0.42 0.42 0.42 0.43 0.48 0.52 0.56 0.60 0.60 0.64 0.51 0.39 0.25 0.56 0.43 0.55 0.60 0.50 0.55 0.60 0.64 0.68 0.64 0.51 0.48 0.35 0.30 0.32 0.22 0.25 0.28 0.38 0.37 0.38 0.25 0.32 0.41 0.40 0.40 0.42 0.42 0.42 0.41
0.46 0.44 0.42 0.41 0.41 0.42 0.48 0.50 0.59 0.59 0.61 0.61 0.52 0.33 0.34 0.30 0.45 0.54 0.61 0.56 0.50 0.52 0.50 0.52 0.49 0.40 0.37 0.31 0.20 0.23 0.25 0.26 0.26 0.34 0.36 0.32 0.28 0.33 0.38 0.37 0.38 0.38 0.39 0.39 0.40
0.46 0.43 0.42 0.42 0.42 0.43 0.46 0.38 0.32 0.29 0.41 0.24 0.22 0.25 0.30 0.42 0.53 0.49 0.57 0.52 0.51 0.44 0.31 0.43 0.33 0.28 0.28 0.31 0.30 0.29 0.29 0.27 0.30 0.36 0.33 0.30 0.29 0.30 0.34 0.34 0.33 0.36 0.36 0.37 0.39
0.45 0.43 0.42 0.40 0.42 0.46 0.47 0.33 0.36 0.40 0.26 0.36 0.38 0.40 0.44 0.47 0.33 0.42 0.55 0.36 0.35 0.27 0.35 0.32 0.24 0.31 0.33 0.34 0.31 0.30 0.28 0.26 0.30 0.36 0.34 0.30 0.26 0.29 0.32 0.34 0.35 0.33 0.34 0.37 0.40
0.43 0.43 0.43 0.43 0.44 0.50 0.45 0.45 0.59 0.56 0.31 0.33 0.41 0.39 0.38 0.41 0.33 0.33 0.44 0.38 0.31 0.28 0.29 0.25 0.26 0.35 0.32 0.31 0.29 0.29 0.28 0.26 0.27 0.34 0.36 0.32 0.25 0.25 0.31 0.33 0.35 0.35 0.36 0.37 0.38
0.47 0.47 0.49 0.45 0.42 0.38 0.39 0.58 0.64 0.62 0.28 0.26 0.30 0.38 0.41 0.40 0.31 0.44 0.49 0.38 0.33 0.27 0.30 0.29 0.35 0.33 0.32 0.28 0.30 0.24 0.34 0.33 0.31 0.30 0.25 0.35 0.20 0.24 0.27 0.29 0.32 0.32 0.34 0.36 0.36
0.41 0.44 0.46 0.40 0.28 0.27 0.39 0.50 0.54 0.46 0.11 0.22 0.28 0.43 0.40 0.32 0.32 0.36 0.53 0.40 0.28 0.30 0.32 0.29 0.27 0.29 0.29 0.28 0.32 0.26 0.35 0.34 0.33 0.30 0.31 0.30 0.27 0.24 0.27 0.25 0.28 0.30 0.33 0.38 0.39
0.33 0.45 0.44 0.33 0.35 0.41 0.47 0.48 0.40 0.17 0.10 0.17 0.25 0.26 0.27 0.31 0.32 0.39 0.40 0.46 0.42 0.34 0.37 0.30 0.35 0.32 0.30 0.32 0.34 0.35 0.31 0.32 0.31 0.30 0.22 0.26 0.26 0.24 0.24 0.27 0.31 0.31 0.34 0.39 0.42
0.37 0.47 0.45 0.50 0.30 0.51 0.48 0.33 0.13 0.11 0.18 0.18 0.22 0.26 0.25 0.24 0.27 0.31 0.30 0.28 0.25 0.20 0.20 0.21 0.21 0.29 0.33 0.27 0.34 0.33 0.28 0.20 0.18 0.18 0.18 0.27 0.27 0.26 0.30 0.31 0.33 0.35 0.37 0.39 0.39
0.39 0.50 0.49 0.44 0.52 0.50 0.37 0.18 0.08 0.14 0.16 0.25 0.23 0.22 0.19 0.23 0.22 0.24 0.24 0.21 0.27 0.26 0.21 0.17 0.17 0.25 0.33 0.29 0.26 0.30 0.29 0.20 0.14 0.15 0.16 0.25 0.22 0.26 0.34 0.38 0.37 0.40 0.41 0.43 0.41
0.38 0.42 0.37 0.38 0.51 0.48 0.27 0.10 0.11 0.18 0.24 0.21 0.19 0.14 0.15 0.22 0.22 0.21 0.21 0.20 0.24 0.28 0.22 0.19 0.19 0.27 0.31 0.33 0.31 0.28 0.25 0.30 0.20 0.22 0.18 0.20 0.23 0.31 0.36 0.36 0.38 0.37 0.38 0.38 0.39
0.28 0.34 0.28 0.39 0.49 0.38 0.20 0.13 0.18 0.28 0.27 0.26 0.16 0.18 0.15 0.19 0.19 0.19 0.18 0.26 0.25 0.32 0.33 0.26 0.17 0.23 0.24 0.28 0.30 0.27 0.30 0.20 0.22 0.12 0.11 0.14 0.16 0.18 0.27 0.27 0.31 0.30 0.31 0.35 0.41
0.23 0.23 0.24 0.39 0.42 0.28 0.15 0.19 0.25 0.32 0.30 0.25 0.22 0.20 0.20 0.20 0.22 0.19 0.20 0.25 0.29 0.29 0.33 0.28 0.22 0.19 0.22 0.19 0.18 0.21 0.20 0.22 0.22 0.18 0.12 0.10 0.11 0.22 0.23 0.27 0.28 0.28 0.28 0.29 0.36
0.20 0.14 0.19 0.37 0.19 0.22 0.18 0.22 0.26 0.24 0.23 0.26 0.29 0.27 0.24 0.25 0.23 0.23 0.22 0.25 0.32 0.29 0.21 0.28 0.24 0.16 0.15 0.22 0.24 0.23 0.21 0.21 0.16 0.15 0.17 0.16 0.12 0.19 0.23 0.24 0.24 0.24 0.26 0.29 0.34
0.16 0.15 0.16 0.19 0.09 0.10 0.12 0.17 0.19 0.15 0.14 0.15 0.17 0.21 0.20 0.17 0.17 0.25 0.25 0.31 0.28 0.25 0.20 0.22 0.23 0.14 0.14 0.18 0.24 0.21 0.24 0.25 0.25 0.23 0.16 0.15 0.12 0.20 0.20 0.19 0.19 0.20 0.21 0.27 0.33
0.15 0.09 0.13 0.16 0.17 0.13 0.12 0.13 0.14 0.19 0.18 0.18 0.17 0.18 0.13 0.11 0.15 0.12 0.11 0.18 0.21 0.19 0.24 0.28 0.20 0.18 0.13 0.15 0.21 0.17 0.18 0.23 0.23 0.18 0.17 0.17 0.16 0.15 0.15 0.21 0.20 0.20 0.23 0.27 0.35
0.15 0.13 0.16 0.10 0.11 0.14 0.16 0.15 0.13 0.12 0.15 0.19 0.18 0.16 0.14 0.11 0.11 0.12 0.14 0.13 0.13 0.14 0.17 0.13 0.08 0.12 0.15 0.17 0.18 0.17 0.16 0.19 0.18 0.17 0.15 0.12 0.14 0.18 0.19 0.22 0.22 0.23 0.26 0.28 0.33
0.14 0.14 0.17 0.14 0.15 0.13 0.14 0.13 0.13 0.14 0.14 0.14 0.15 0.15 0.15 0.13 0.14 0.13 0.16 0.15 0.15 0.13 0.12 0.13 0.08 0.10 0.08 0.08 0.08 0.07 0.08 0.09 0.11 0.12 0.14 0.15 0.13 0.22 0.24 0.24 0.24 0.25 0.28 0.27 0.32
0.25 0.26 0.19 0.14 0.12 0.11 0.13 0.14 0.14 0.17 0.16 0.18 0.17 0.16 0.13 0.14 0.18 0.18 0.17 0.15 0.14 0.13 0.13 0.15 0.12 0.10 0.08 0.11 0.10 0.07 0.11 0.13 0.13 0.14 0.16 0.13 0.19 0.25 0.23 0.23 0.24 0.26 0.28 0.28 0.33
Wind_Speed
14 14 14 14 14 13 13 13 13 13 14 14 14 14 14 15 14 10 10 10 11 12 12 12 12 13 13 13 13 14 15 17 18 19 19 21 23 24 26 29 30 32 35 35 35
15 15 15 15 15 14 14 14 14 14 15 15 15 15 14 15 14 10 10 10 11 12 12 13 13 14 13 14 13 14 15 16 18 20 23 25 26 28 29 30 30 30 32 34 35
16 16 16 16 16 16 15 15 15 15 16 16 16 15 15 15 13 9 10 11 11 12 12 13 14 14 14 15 14 14 16 18 20 22 24 25 27 27 27 27 27 28 28 31 33
16 17 17 17 17 17 17 16 16 16 17 17 17 16 15 13 12 11 11 11 12 13 13 14 15 15 15 15 15 17 18 20 21 22 23 24 25 25 24 26 26 27 28 29 33
18 18 18 18 18 18 18 18 18 18 18 18 17 16 15 14 14 12 12 12 13 13 13 14 14 15 16 16 18 17 20 20 22 23 24 24 24 24 24 24 24 26 28 29 33
19 19 19 19 19 20 19 19 20 20 20 19 18 17 15 15 13 12 12 13 13 14 14 15 15 16 16 16 16 18 22 23 22 21 18 20 21 18 19 19 20 23 26 28 31
20 21 21 21 21 22 22 22 22 22 21 20 18 17 18 17 14 13 13 14 14 14 15 15 15 16 16 17 17 20 21 21 16 16 18 18 20 17 19 17 20 22 23 25 29
22 23 23 23 23 24 24 24 24 22 21 20 18 18 18 16 15 14 14 15 15 15 15 15 16 17 16 17 17 17 16 17 15 17 16 15 21 19 17 19 22 21 22 21 25
23 24 24 25 25 26 26 25 23 22 21 19 18 19 17 15 16 16 16 16 15 15 16 16 17 17 15 16 16 14 17 19 18 14 18 15 23 21 22 23 22 21 22 22 24
25 26 26 26 27 27 27 25 23 22 20 19 19 18 18 18 17 16 16 15 15 15 16 15 16 16 15 14 15 16 18 16 19 16 19 22 24 24 23 19 18 17 18 20 22
27 27 27 27 27 27 26 23 22 22 20 22 24 24 21 20 18 17 16 15 15 16 16 15 17 17 19 17 19 18 18 20 22 20 19 20 22 22 20 16 12 10 12 16 20
28 29 29 29 29 27 24 23 22 24 26 24 25 25 24 21 18 16 15 15 15 17 15 16 19 19 16 16 17 17 19 20 18 14 19 21 21 16 13 13 11 8 8 11 15
31 31 31 31 29 25 23 23 23 24 24 23 21 18 15 16 15 15 14 15 17 18 18 19 18 16 17 17 18 18 18 18 17 20 16 17 11 12 11 12 11 9 6 7 11
32 32 31 29 23 23 23 23 23 23 23 20 13 12 12 12 13 15 15 16 17 19 19 21 18 18 18 18 16 18 13 15 16 17 13 13 11 9 11 12 11 11 8 5 6
32 30 28 25 24 22 23 23 22 20 19 15 14 15 14 14 14 15 17 18 21 21 19 19 18 17 17 15 12 13 13 15 16 14 13 7 9 7 10 11 13 13 12 8 7
32 29 27 25 23 23 23 22 21 18 20 17 17 17 17 17 18 18 19 20 22 22 21 24 18 17 15 13 14 14 16 14 11 8 8 6 9 7 9 9 11 13 13 11 9
31 28 26 25 25 25 24 22 20 20 20 20 19 20 20 20 20 20 21 22 21 19 17 18 17 15 14 14 13 13 13 10 8 7 8 7 9 10 10 8 8 11 13 14 14
30 26 26 26 26 25 23 21 22 21 22 23 24 27 23 23 21 20 20 19 16 19 20 18 15 12 12 13 13 12 11 10 11 9 12 9 7 7 7 9 8 10 12 14 16
27 25 25 28 26 24 22 21 22 23 25 26 27 23 20 18 19 18 17 19 17 16 16 17 16 12 12 13 11 7 10 9 11 9 9 7 8 11 4 5 7 11 12 18 20
26 25 27 30 27 24 23 22 23 23 26 24 23 20 21 21 21 20 18 17 18 16 16 14 16 12 11 10 10 11 9 9 8 9 8 7 9 10 7 10 12 14 20 24 22
26 25 31 30 26 24 23 23 23 24 24 23 22 23 22 20 20 18 16 15 16 16 13 14 15 13 13 12 14 11 12 12 12 11 10 9 6 7 10 12 13 20 25 25 23
27 25 32 29 26 25 24 24 25 24 23 21 20 19 19 20 20 18 17 15 16 16 15 16 17 18 20 19 15 16 16 16 15 12 13 12 11 10 7 11 22 27 27 26 25
26 27 30 27 24 25 25 23 21 21 19 19 18 18 19 20 20 18 18 16 17 18 17 17 16 18 17 13 12 14 13 14 15 16 20 19 15 10 17 28 30 30 30 27 26
27 27 28 26 25 25 24 21 20 18 17 17 17 17 20 19 18 20 21 19 23 24 23 22 23 25 27 26 23 28 27 26 25 24 26 30 33 31 30 32 29 29 28 27 25
28 26 27 27 26 24 22 20 19 19 17 18 16 16 18 19 22 17 19 24 22 21 18 19 25 27 30 32 33 35 35 32 33 33 32 38 37 33 33 28 27 28 26 26 24
27 27 27 25 25 23 21 19 18 19 18 17 19 21 22 20 20 23 25 25 24 21 21 23 24 27 32 33 35 40 37 38 39 39 40 40 43 33 29 27 27 27 24 26 26
28 28 27 24 24 22 20 20 20 21 18 20 22 25 24 22 25 29 31 32 32 31 29 27 24 25 26 24 29 33 28 32 35 35 32 35 30 30 30 29 29 27 24 27 27
Wind_Direction
9 5 2 359 354 350 346 341 335 331 328 326 325 323 324 327 328 323 327 333 336 338 340 337 338 336 331 329 324 320 313 308 306 305 306 302 297 292 287 277 267 255 246 243 239
0 358 356 353 350 347 343 340 336 333 328 324 321 320 319 323 322 312 322 328 331 335 338 340 338 337 332 330 325 318 316 314 308 305 303 302 297 295 288 278 267 257 250 243 237
351 350 349 347 344 341 339 337 335 332 329 326 322 318 316 318 316 306 314 321 326 330 332 333 334 334 330 329 325 322 316 319 307 305 305 303 298 295 286 275 267 256 251 244 237
344 343 342 341 339 336 333 332 331 329 328 325 324 319 315 313 312 307 308 313 319 323 326 328 328 329 326 325 324 318 312 310 311 310 307 303 304 295 282 276 268 257 253 249 238
337 336 335 335 334 332 329 327 325 324 322 321 320 319 314 307 302 300 304 308 313 317 321 323 325 325 323 322 322 310 317 316 311 310 307 306 299 294 282 281 271 259 254 249 237
330 329 329 328 328 328 325 323 321 318 316 316 314 316 310 301 303 294 298 304 308 311 314 318 320 321 317 319 318 324 316 314 316 312 311 311 306 309 292 282 276 264 257 248 235
326 325 324 323 322 322 320 318 317 315 312 311 308 308 304 294 297 291 294 300 304 306 309 312 314 316 318 316 318 318 319 321 321 324 320 321 307 295 293 287 282 273 258 246 233
324 323 321 319 318 318 317 316 314 313 310 309 304 305 300 297 290 288 291 297 300 303 306 307 310 311 310 315 316 319 320 328 331 326 327 325 314 314 306 293 287 274 253 243 233
323 322 319 318 316 315 314 313 312 311 310 307 304 302 298 297 290 286 287 293 296 301 304 305 307 308 309 311 312 317 320 321 327 328 327 322 317 316 311 298 289 271 253 244 235
321 319 317 316 315 314 313 311 308 308 308 305 304 301 295 294 291 287 286 288 294 298 302 302 304 304 300 303 312 312 315 318 316 327 322 318 311 319 321 310 293 268 252 244 234
321 320 318 316 315 314 312 310 307 304 300 297 297 295 293 291 286 283 283 284 290 294 296 300 300 294 300 295 301 304 305 307 311 318 323 321 321 324 331 332 312 281 257 243 233
321 318 316 314 313 311 308 307 307 306 304 297 293 290 286 284 281 270 274 277 286 290 293 296 292 299 299 297 295 296 301 306 315 321 323 325 320 334 345 347 345 320 278 250 236
320 317 315 312 309 306 305 305 304 305 302 306 298 293 291 271 273 268 266 281 286 288 285 287 300 299 293 291 291 291 292 305 309 321 318 326 330 343 355 353 357 351 318 272 247
322 319 318 315 310 308 305 305 303 304 302 307 303 301 297 286 274 277 269 283 286 291 291 290 295 291 288 284 284 294 301 298 309 321 322 337 329 341 344 354 3 360 349 309 277
326 323 321 318 312 310 308 306 305 303 303 306 301 301 295 283 286 281 278 282 285 288 288 293 289 286 283 284 273 290 298 299 304 304 314 315 319 328 343 351 355 1 358 331 295
326 324 322 318 314 312 308 304 301 296 289 297 297 299 293 287 284 284 282 283 289 289 281 280 286 286 283 283 273 293 296 292 298 298 297 328 329 312 346 346 349 360 6 360 326
324 322 323 318 313 310 306 300 295 287 301 301 297 298 295 290 287 283 284 283 283 287 283 285 282 280 273 278 281 282 290 292 287 291 300 311 306 303 313 323 323 343 353 356 353
324 322 322 321 314 310 303 296 286 296 294 295 295 294 288 295 288 286 284 285 284 281 284 285 282 271 268 274 286 274 280 284 290 290 302 304 273 323 314 315 322 326 335 341 346
325 322 323 323 318 311 303 296 299 300 298 298 297 293 291 288 295 290 287 293 289 287 280 285 277 274 270 276 274 267 266 288 287 289 288 279 285 297 315 335 347 340 334 332 331
325 321 326 323 317 311 305 302 299 302 299 296 292 294 291 295 295 293 285 292 290 292 286 280 277 274 275 264 262 266 269 275 275 287 284 280 285 269 281 318 331 338 337 330 323
325 321 326 324 318 314 308 305 300 302 303 300 293 289 290 291 288 284 287 284 295 293 288 286 269 267 269 258 268 262 265 264 274 271 280 294 280 289 287 310 317 321 324 326 325
326 323 328 323 319 316 312 308 307 302 304 297 292 292 291 293 287 282 284 277 293 293 288 280 274 269 269 272 267 265 265 260 263 265 265 277 272 303 297 312 315 319 317 316 317
327 324 328 327 322 321 315 308 307 309 304 301 299 298 297 291 289 286 284 273 295 290 286 283 269 276 273 261 259 259 262 264 270 270 266 267 264 279 291 306 310 314 312 309 311
325 324 326 329 327 322 319 312 311 308 302 301 300 294 301 293 288 287 288 284 294 288 282 269 265 263 265 269 275 270 269 270 270 268 273 265 278 282 290 300 306 310 311 311 309
327 324 325 324 327 324 318 314 313 314 305 306 294 309 304 293 295 286 289 295 292 286 282 279 271 272 271 271 270 269 269 267 263 264 264 273 272 281 288 296 298 302 310 312 311
325 324 323 323 322 321 320 317 313 311 303 302 301 304 301 291 291 293 294 294 285 286 284 288 277 281 276 274 271 271 270 267 264 263 264 268 272 279 285 288 294 299 303 309 310
325 323 321 321 321 317 313 312 310 310 299 298 301 301 297 293 293 291 288 285 280 281 282 281 278 280 276 285 285 277 274 270 266 263 267 265 274 281 283 285 289 290 296 305 306